This is the latest recevied weather packets stored in our database for station/object KC2G. If no packets are shown the sender has not sent any weather packets the latest 10 day(s).
| Time | Temp. | Humidity | Pressure | Rain* | Wind** | Luminosity | Snow |
|---|---|---|---|---|---|---|---|
| 1777667455 | 17.22° C | 39% | 1009 hPa | 0 mm | 0.89 m/s, 220° | - | - |
| 1777666555 | 17.22° C | 36% | 1009.1 hPa | 0 mm | 0.89 m/s, 124° | - | - |
| 1777665655 | 17.78° C | 35% | 1009.2 hPa | 0 mm | 0.45 m/s, 235° | - | - |
| 1777664755 | 17.78° C | 37% | 1009.1 hPa | 0 mm | 0.45 m/s, 145° | - | - |
| 1777663855 | 17.78° C | 35% | 1009.2 hPa | 0 mm | 0.89 m/s, 245° | - | - |
| 1777662954 | 17.78° C | 35% | 1009.3 hPa | 0 mm | 0.89 m/s, 170° | - | - |
| 1777662055 | 17.78° C | 35% | 1009.4 hPa | 0 mm | 0.45 m/s, 232° | - | - |
| 1777661155 | 17.22° C | 35% | 1009.8 hPa | 0 mm | 0.89 m/s, 144° | - | - |
| 1777660255 | 17.78° C | 37% | 1010 hPa | 0 mm | 0.89 m/s, 221° | - | - |
| 1777659355 | 17.22° C | 36% | 1010.2 hPa | 0 mm | 0.89 m/s, 205° | - | - |
| 1777659007 | 16.67° C | 39% | 1010.3 hPa | 0 mm | 0.89 m/s, 204° | - | - |
| 1777658455 | 17.22° C | 35% | 1010.2 hPa | 0 mm | 0.45 m/s, 293° | - | - |
| 1777657555 | 16.67° C | 39% | 1010.3 hPa | 0 mm | 0.89 m/s, 204° | - | - |
| 1777657083 | 16.11° C | 39% | 1010.8 hPa | 0 mm | 0.45 m/s, 181° | - | - |
| 1777656655 | 16.67° C | 39% | 1010.5 hPa | 0 mm | 0.89 m/s, 167° | - | - |
| 1777655754 | 16.11° C | 39% | 1010.8 hPa | 0 mm | 0.45 m/s, 181° | - | - |
| 1777655162 | 16.11° C | 39% | 1011.1 hPa | 0 mm | 0.89 m/s, 237° | - | - |
| 1777654855 | 16.11° C | 40% | 1011 hPa | 0 mm | 0.89 m/s, 277° | - | - |
| 1777654015 | 16.11° C | 39% | 1011.1 hPa | 0 mm | 0.89 m/s, 237° | - | - |
| 1777653955 | 16.11° C | 39% | 1011.1 hPa | 0 mm | 0.89 m/s, 237° | - | - |
| 1777653055 | 15.56° C | 40% | 1011.4 hPa | 0 mm | 0.89 m/s, 205° | - | - |
| 1777652155 | 15° C | 41% | 1011.5 hPa | 0 mm | 0.45 m/s, 118° | - | - |
| 1777651255 | 15° C | 42% | 1011.7 hPa | 0 mm | 0.89 m/s, 19° | - | - |
| 1777650355 | 15° C | 39% | 1012 hPa | 0 mm | 0.89 m/s, 282° | - | - |
| 1777649455 | 14.44° C | 43% | 1012.3 hPa | 0 mm | 0.89 m/s, 349° | - | - |
* Rain latest hour (hover to see other rain measurements)
** Current wind speed in m/s (hover to see current wind gust speed)